Location: 5810 Zion Rd, Cleves, OH 45002, USA
(39.1922°N, 84.7113°W)
Time: 14:29:36
(UTC-05:00)

Courier 1B Rocket - Pass Details

Date: 14 December 2019
Orbit: 920 x 1202 km, 28.2° (Epoch: 24 January)

Event Time Altitude Azimuth Distance (km) Brightness Sun altitude
Rises 10:04:14 0° 259° (W) 3,729 7.8 18.5°
Reaches altitude 10° 10:07:59 10° 240° (WSW) 2,723 7.4 18.9°
Maximum altitude 10:11:57 17° 202° (SSW) 2,213 7.5 19.4°
Drops below altitude 10° 10:15:50 10° 164° (SSE) 2,633 9.0 19.8°
Sets 10:19:22 0° 145° (SE) 3,551 9.6 20.2°
